Location: Daytona Beach
(29.2106°N, 81.0231°W)
Time: 14:11:42
(UTC-04:00)

X-37B - Pass Details

Date: 24 June 2021
Orbit: 383 x 392 km, 45.0° (Epoch: 01 July)

Event Time Altitude Azimuth Distance (km) Brightness Sun altitude
Rises 21:39:03 0° 260° (W) 2,248 5.1 -14.1°
Reaches altitude 10° 21:41:24 10° 277° (W) 1,396 4.3 -14.5°
Maximum altitude 21:43:56 22° 330° (NNW) 894 3.3 -14.9°
Drops below altitude 10° 21:46:29 10° 24° (NNE) 1,398 3.6 -15.4°
Sets 21:48:50 0° 41° (NE) 2,252 4.4 -15.8°
